Home > Weather > Kryvyi Rih > Past weeks

Flag for Ukraine Past Weather in Kryvyi Rih, Ukraine — Yesterday and Last 2 Weeks

Now
86 °F

Passing clouds.


Feels Like: 87 °F
Forecast: 70 / 88 °F
Wind: 6 mph from Northeast

Location: Krivyy Rih / Dnipropetrovs'k

Current Time: Jun 28, 2016 at 11:01:16 AM

Latest Report: Jun 28, 2016 at 10:30 AM


Visibility: N/A

Pressure: 29.71 "Hg

Humidity: 49%

Dew Point: 64 °F

Location of Kryvyi RihLocation

Past Weather in Kryvyi Rih — Graph

°F

Kryvyi Rih Temperature Yesterday

Maximum temperature yesterday: 90 °F (at 3:00 PM)
Minimum temperature yesterday: 64 °F (at 3:00 AM)
Average temperature yesterday: 78 °F

High & Low Weather Summary for the Past Weeks

 TemperatureHumidityPressure
High90 °F (Jun 21, 4:00 PM)100% (Jun 14, 9:00 PM)30.27 "Hg (Jun 14, 9:00 PM)
Low61 °F (Jun 14, 4:00 AM)33% (Jun 27, 4:00 PM)29.56 "Hg (Jun 15, 2:00 AM)
Average75 °F68%30.00 "Hg
* Reported Jun 13 10:00 AM — Jun 28 10:00 AM, Kryvyi Rih, Weather by CustomWeather, © 2016

Note: Actual official high and low records may vary slightly from our data, if they occured in-between our weather recording intervals... More about our weather records

Advertising

Kryvyi Rih Weather History for the Previous 24 Hours

Scroll right to see more
 ConditionsComfort  
Time TempWeatherWind HumidityBarometerVisibility
10:00 AM
Tue, Jun 28
86 °FPassing clouds.3 mph49%29.71 "HgN/A
9:30 AM84 °FPassing clouds.6 mph51%29.71 "HgN/A
9:00 AM84 °FPassing clouds.6 mph51%29.71 "HgN/A
8:30 AM81 °FPassing clouds.3 mph62%29.74 "HgN/A
8:00 AM81 °FPassing clouds.6 mph62%29.74 "HgN/A
7:30 AM77 °FPassing clouds.6 mph65%29.74 "HgN/A
7:00 AM77 °FPassing clouds.6 mph65%29.74 "HgN/A
6:30 AM73 °FPassing clouds.6 mph69%29.74 "HgN/A
6:00 AM73 °FPassing clouds.6 mph69%29.74 "HgN/A
5:30 AM72 °FPassing clouds.6 mph73%29.74 "HgN/A
5:00 AM72 °FPassing clouds.6 mph73%29.74 "HgN/A
4:30 AM72 °FPassing clouds.6 mph73%29.74 "HgN/A
4:00 AM72 °FPassing clouds.6 mph73%29.74 "HgN/A
3:30 AM72 °FPassing clouds.3 mph69%29.77 "HgN/A
3:00 AM72 °FClear.6 mph69%29.77 "Hg10 mi
2:30 AM73 °FClear.6 mph65%29.77 "Hg10 mi
2:00 AM73 °FPassing clouds.3 mph65%29.77 "HgN/A
1:30 AM73 °FPassing clouds.6 mph65%29.77 "HgN/A
1:00 AM73 °FPassing clouds.6 mph65%29.77 "HgN/A
12:30 AM73 °FClear.6 mph65%29.77 "Hg10 mi
12:00 AM73 °FPassing clouds.6 mph65%29.77 "HgN/A
11:30 PM
Mon, Jun 27
73 °FPassing clouds.6 mph69%29.77 "HgN/A
11:00 PM73 °FClear.6 mph69%29.77 "Hg10 mi
10:30 PM75 °FPassing clouds.6 mph65%29.77 "HgN/A
10:00 PM75 °FPassing clouds.6 mph65%29.77 "HgN/A
9:30 PM77 °FSunny.6 mph57%29.77 "Hg10 mi
9:00 PM77 °FPassing clouds.3 mph57%29.77 "HgN/A
8:30 PM82 °FSunny.3 mph51%29.77 "Hg10 mi
8:00 PM82 °FSunny.3 mph51%29.77 "Hg10 mi
7:30 PM84 °FSunny.3 mph51%29.77 "Hg10 mi
7:00 PM86 °FPassing clouds.3 mph43%29.77 "HgN/A
6:30 PM88 °FScattered clouds.3 mph43%29.80 "HgN/A
6:00 PM88 °FScattered clouds.3 mph43%29.80 "HgN/A
5:30 PM90 °FScattered clouds.3 mph33%29.80 "HgN/A
5:00 PM90 °FScattered clouds.3 mph33%29.80 "HgN/A
4:30 PM90 °FScattered clouds.3 mph33%29.83 "HgN/A
4:00 PM90 °FScattered clouds.3 mph33%29.83 "HgN/A
3:30 PM90 °FScattered clouds.3 mph36%29.83 "HgN/A
3:00 PM90 °FScattered clouds.6 mph36%29.83 "HgN/A
2:30 PM88 °FScattered clouds.3 mph38%29.83 "HgN/A
2:00 PM88 °FScattered clouds.6 mph38%29.86 "HgN/A
1:30 PM88 °FScattered clouds.6 mph38%29.86 "HgN/A
1:00 PM88 °FScattered clouds.6 mph38%29.86 "HgN/A
12:30 PM88 °FScattered clouds.6 mph40%29.86 "HgN/A
12:00 PM88 °FScattered clouds.6 mph40%29.89 "HgN/A
11:30 AM88 °FScattered clouds.8 mph38%29.89 "HgN/A
11:00 AM88 °FScattered clouds.6 mph38%29.89 "HgN/A
Weather by CustomWeather, © 2016

See weather overviewHow to use our weather pages